Weather History for Pompano Beach, FL

Change the Weather History Date:

Sunday, November 11, 2012

  Actual Average Record
Temperature  
Mean Temperature 76 °F -  
Max Temperature 78 °F 83 °F 88 °F (1952)
Min Temperature 73 °F 65 °F 47 °F (1962)
Cooling Degree Days 10    
Growing Degree Days 26 (Base 50)    
Moisture  
Dew Point 60 °F    
Average Humidity 60    
Maximum Humidity 100    
Minimum Humidity 50    
Precipitation  
Precipitation 0.11 in - - ()
Sea Level Pressure  
Sea Level Pressure 30.20 in    
Wind  
Wind Speed 16 mph (East)    
Max Wind Speed 22 mph    
Max Gust Speed 30 mph    
Visibility 10 miles    
Events Rain    
Averages and records for this station are not official NWS values.
T = Trace of Precipitation, MM = Missing Value Source: NWS Daily Summary

Daily Weather History Graph

Daily Weather History Graph

Search for Another Location

Airport:

Trip Planner

Search our weather history database for the weather conditions in past years. The results will help you decide how hot, cold, wet, or windy it might be!

Date:

Astronomy

Nov. 11, 2012 Rise Set
Actual Time 6:36 AM EST 5:32 PM EST
Civil Twilight 6:12 AM EST 5:56 PM EST
Nautical Twilight 5:44 AM EST 6:24 PM EST
Astronomical Twilight 5:17 AM EST 6:51 PM EST
Moon 4:00 AM EST (11/11) 3:45 PM EST (11/11)
Length of Visible Light 11h 44m
Length of Day
10h 55m
Waning Crescent, 7% of the Moon is Illuminated
Nov 11
Waning Crescent
Nov 13
New
Nov 20
First Quarter
Nov 28
Full
Dec 6
Last Quarter

Hourly Weather History & Observations

Time (EST) Temp. Dew Point Humidity Pressure Visibility Wind Dir Wind Speed Gust Speed Precip Events Conditions
12:53 AM 73.0 °F 59.0 °F 61% 30.21 in 10.0 mi ENE 17.3 mph 27.6 mph N/A   Overcast
1:53 AM 73.9 °F 55.0 °F 52% 30.19 in 10.0 mi East 16.1 mph 25.3 mph N/A   Overcast
2:53 AM 73.9 °F 55.0 °F 52% 30.17 in 10.0 mi East 17.3 mph 24.2 mph N/A   Mostly Cloudy
3:53 AM 73.9 °F 54.0 °F 50% 30.18 in 10.0 mi East 10.4 mph - N/A   Mostly Cloudy
4:53 AM 73.9 °F 54.0 °F 50% 30.19 in 10.0 mi East 11.5 mph - N/A   Overcast
5:53 AM 73.0 °F 57.9 °F 59% 30.20 in 10.0 mi East 16.1 mph 21.9 mph N/A   Mostly Cloudy
6:53 AM 73.9 °F 57.9 °F 57% 30.21 in 10.0 mi ENE 21.9 mph 27.6 mph N/A   Mostly Cloudy
7:53 AM 73.9 °F 57.0 °F 55% 30.22 in 10.0 mi East 12.7 mph 23.0 mph N/A   Mostly Cloudy
9:53 AM 75.9 °F 59.0 °F 56% 30.24 in 10.0 mi East 13.8 mph 23.0 mph N/A   Scattered Clouds
10:53 AM 78.1 °F 60.1 °F 54% 30.25 in 10.0 mi East 17.3 mph 25.3 mph N/A   Mostly Cloudy
11:53 AM 77.0 °F 57.0 °F 50% 30.24 in 10.0 mi East 10.4 mph - N/A   Mostly Cloudy
12:53 PM 78.1 °F 60.1 °F 54% 30.21 in 10.0 mi East 13.8 mph 21.9 mph N/A   Mostly Cloudy
1:53 PM 78.1 °F 60.1 °F 54% 30.20 in 10.0 mi East 16.1 mph 24.2 mph N/A   Scattered Clouds
2:53 PM 78.1 °F 59.0 °F 52% 30.19 in 10.0 mi East 16.1 mph 21.9 mph N/A   Partly Cloudy
3:53 PM 77.0 °F 62.1 °F 60% 30.19 in 10.0 mi East 15.0 mph - N/A   Partly Cloudy
4:53 PM 75.0 °F 61.0 °F 62% 30.19 in 10.0 mi ENE 13.8 mph - N/A   Scattered Clouds
5:53 PM 75.0 °F 62.1 °F 64% 30.20 in 10.0 mi East 12.7 mph - N/A   Scattered Clouds
6:53 PM 75.0 °F 63.0 °F 66% 30.20 in 10.0 mi East 15.0 mph 20.7 mph N/A   Mostly Cloudy
8:53 PM 75.0 °F 63.0 °F 66% 30.21 in 10.0 mi ENE 20.7 mph 29.9 mph N/A   Mostly Cloudy
9:53 PM 73.9 °F 66.9 °F 79% 30.22 in 6.0 mi ESE 20.7 mph 28.8 mph 0.02 in Rain Light Rain
10:53 PM 73.0 °F 73.0 °F 100% 30.21 in 10.0 mi SE 17.3 mph 21.9 mph 0.09 in Rain Light Rain
11:53 PM 75.0 °F 64.9 °F 71% 30.19 in 10.0 mi East 17.3 mph 27.6 mph 0.00 in   Overcast